Location: Poughquag
(41.6090°N, 73.6820°W)
Time: 10:39:15
(UTC-05:00)

Vanguard 3 - Pass Details

Date: 04 December 2023
Orbit: 508 x 3239 km, 33.4° (Epoch: 03 March)

Event Time Altitude Azimuth Distance (km) Brightness Sun altitude
Rises 19:17:48 0° 207° (SSW) 6,893 12.2 -31.6°
Reaches altitude 10° 19:24:21 10° 195° (SSW) 5,509 11.5 -32.9°
Enters shadow 19:34:31 22° 154° (SSE) 3,813 10.3 -34.8°
